Time,TemperatureF,DewpointF,PressureIn,WindDirection,WindDirectionDegrees,WindSpeedMPH,WindSpeedGustMPH,Humidity,HourlyPrecipIn,Conditions,Clouds,dailyrainin,SoftwareType,DateUTC
2013-10-22 00:01:00,28.1,25.3,29.93,WSW,243,0.0,1.0,89,0.00,,SKC,0.00,VWS V14.01,2013-10-22 05:01:00,
2013-10-22 00:06:00,28.1,25.3,29.93,WSW,243,0.0,1.0,89,0.00,,SKC,0.00,VWS V14.01,2013-10-22 05:06:00,
2013-10-22 00:11:00,28.0,25.2,29.94,WSW,243,0.0,1.0,89,0.00,,SKC,0.00,VWS V14.01,2013-10-22 05:11:00,
2013-10-22 00:16:00,27.9,25.4,29.94,WSW,243,0.0,1.0,90,0.00,,SKC,0.00,VWS V14.01,2013-10-22 05:16:00,
2013-10-22 00:21:00,27.8,25.2,29.94,WSW,243,0.0,1.0,90,0.00,,SKC,0.00,VWS V14.01,2013-10-22 05:21:00,
2013-10-22 00:26:00,27.6,24.8,29.94,WSW,243,0.0,1.0,89,0.00,,SKC,0.00,VWS V14.01,2013-10-22 05:26:00,
2013-10-22 00:31:00,27.4,24.6,29.94,WSW,243,0.0,0.0,89,0.00,,SKC,0.00,VWS V14.01,2013-10-22 05:31:00,
2013-10-22 00:36:00,27.2,24.7,29.94,WSW,243,0.0,0.0,90,0.00,,SKC,0.00,VWS V14.01,2013-10-22 05:36:00,
2013-10-22 00:41:00,27.1,24.6,29.94,WSW,243,0.0,0.0,90,0.00,,SKC,0.00,VWS V14.01,2013-10-22 05:41:00,
2013-10-22 00:46:00,27.0,24.7,29.93,WSW,243,0.0,0.0,91,0.00,,SKC,0.00,VWS V14.01,2013-10-22 05:46:00,
2013-10-22 00:51:00,27.1,24.8,29.94,WSW,243,0.0,0.0,91,0.00,,SKC,0.00,VWS V14.01,2013-10-22 05:51:00,
2013-10-22 00:56:00,27.0,24.7,29.93,WSW,243,0.0,0.0,91,0.00,,SKC,0.00,VWS V14.01,2013-10-22 05:56:00,
2013-10-22 01:01:00,27.0,25.0,29.94,WSW,243,0.0,0.0,92,0.00,,SKC,0.00,VWS V14.01,2013-10-22 06:01:00,
2013-10-22 01:06:00,27.1,25.1,29.94,WSW,243,0.0,0.0,92,0.00,,SKC,0.00,VWS V14.01,2013-10-22 06:06:00,
2013-10-22 01:11:00,27.1,25.1,29.94,WSW,243,0.0,0.0,92,0.00,,SKC,0.00,VWS V14.01,2013-10-22 06:11:00,
2013-10-22 01:16:00,27.1,25.1,29.94,WSW,243,0.0,1.0,92,0.00,,SKC,0.00,VWS V14.01,2013-10-22 06:16:00,
2013-10-22 01:21:00,27.2,25.2,29.94,WSW,243,0.0,1.0,92,0.00,,SKC,0.00,VWS V14.01,2013-10-22 06:21:00,
2013-10-22 01:26:00,27.4,25.4,29.94,WSW,243,0.0,1.0,92,0.00,,SKC,0.00,VWS V14.01,2013-10-22 06:26:00,
2013-10-22 01:31:00,27.5,25.5,29.94,WSW,243,2.0,2.0,92,0.00,,SKC,0.00,VWS V14.01,2013-10-22 06:31:00,
2013-10-22 01:36:00,27.6,25.6,29.94,WSW,243,0.0,2.0,92,0.00,,SKC,0.00,VWS V14.01,2013-10-22 06:36:00,
2013-10-22 01:41:00,27.8,25.8,29.94,WSW,243,0.0,2.0,92,0.00,,SKC,0.00,VWS V14.01,2013-10-22 06:41:00,
2013-10-22 01:46:00,27.8,25.8,29.94,WSW,243,0.0,2.0,92,0.00,,SKC,0.00,VWS V14.01,2013-10-22 06:46:00,
2013-10-22 01:51:00,27.9,25.6,29.94,WSW,243,0.0,2.0,91,0.00,,SKC,0.00,VWS V14.01,2013-10-22 06:51:00,
2013-10-22 01:56:00,27.9,25.6,29.95,WSW,243,0.0,2.0,91,0.00,,SKC,0.00,VWS V14.01,2013-10-22 06:56:00,
2013-10-22 02:01:00,27.8,25.5,29.95,WSW,244,0.0,1.0,91,0.00,,SKC,0.00,VWS V14.01,2013-10-22 07:01:00,
2013-10-22 02:06:00,27.8,25.5,29.95,WSW,244,0.0,2.0,91,0.00,,SKC,0.00,VWS V14.01,2013-10-22 07:06:00,
2013-10-22 02:11:00,27.8,25.5,29.95,WSW,248,0.0,2.0,91,0.00,,SKC,0.00,VWS V14.01,2013-10-22 07:11:00,
2013-10-22 02:16:00,27.9,25.6,29.94,WNW,298,1.0,4.0,91,0.00,,SKC,0.00,VWS V14.01,2013-10-22 07:16:00,
2013-10-22 02:21:00,27.8,25.5,29.95,WNW,298,0.0,4.0,91,0.00,,SKC,0.00,VWS V14.01,2013-10-22 07:21:00,
2013-10-22 02:26:00,27.9,25.6,29.95,WNW,298,0.0,4.0,91,0.00,,SKC,0.00,VWS V14.01,2013-10-22 07:26:00,
2013-10-22 02:31:00,27.8,25.5,29.95,West,269,0.0,1.0,91,0.00,,SKC,0.00,VWS V14.01,2013-10-22 07:31:00,
2013-10-22 02:36:00,27.8,25.5,29.95,West,269,0.0,1.0,91,0.00,,SKC,0.00,VWS V14.01,2013-10-22 07:36:00,
2013-10-22 02:41:00,27.7,25.4,29.95,West,269,0.0,1.0,91,0.00,,SKC,0.00,VWS V14.01,2013-10-22 07:41:00,
2013-10-22 02:46:00,27.8,25.8,29.95,West,269,0.0,1.0,92,0.00,,SKC,0.00,VWS V14.01,2013-10-22 07:46:00,
2013-10-22 02:51:00,28.0,26.0,29.95,West,269,0.0,1.0,92,0.00,,SKC,0.00,VWS V14.01,2013-10-22 07:51:00,
2013-10-22 02:56:00,28.3,26.5,29.95,West,269,0.0,1.0,93,0.00,,SKC,0.00,VWS V14.01,2013-10-22 07:56:00,
2013-10-22 03:01:00,28.5,26.5,29.95,SW,233,0.0,2.0,92,0.00,,SKC,0.00,VWS V14.01,2013-10-22 08:01:00,
2013-10-22 03:06:00,28.7,26.7,29.95,SW,233,0.0,2.0,92,0.00,,SKC,0.00,VWS V14.01,2013-10-22 08:06:00,
2013-10-22 03:11:00,28.8,26.8,29.94,SW,233,0.0,2.0,92,0.00,,SKC,0.00,VWS V14.01,2013-10-22 08:11:00,
2013-10-22 03:16:00,28.8,26.8,29.95,SW,233,0.0,2.0,92,0.00,,SKC,0.00,VWS V14.01,2013-10-22 08:16:00,
2013-10-22 03:21:00,28.8,26.8,29.95,SW,233,0.0,2.0,92,0.00,,SKC,0.00,VWS V14.01,2013-10-22 08:21:00,
2013-10-22 03:26:00,29.0,27.0,29.95,SW,233,0.0,2.0,92,0.00,,SKC,0.00,VWS V14.01,2013-10-22 08:26:00,
2013-10-22 03:31:00,29.1,27.1,29.95,SW,233,0.0,1.0,92,0.00,,SKC,0.00,VWS V14.01,2013-10-22 08:31:00,
2013-10-22 03:36:00,29.3,27.3,29.95,SW,233,0.0,1.0,92,0.00,,SKC,0.00,VWS V14.01,2013-10-22 08:36:00,
2013-10-22 03:41:00,29.5,27.5,29.95,SW,233,0.0,1.0,92,0.00,,SKC,0.00,VWS V14.01,2013-10-22 08:41:00,
2013-10-22 03:46:00,29.6,27.6,29.95,SW,233,0.0,1.0,92,0.00,,SKC,0.00,VWS V14.01,2013-10-22 08:46:00,
2013-10-22 03:51:00,29.6,27.6,29.94,SW,233,0.0,1.0,92,0.00,,SKC,0.00,VWS V14.01,2013-10-22 08:51:00,
2013-10-22 03:56:00,29.7,27.7,29.94,SW,233,0.0,1.0,92,0.00,,SKC,0.00,VWS V14.01,2013-10-22 08:56:00,
2013-10-22 04:01:00,29.7,27.7,29.94,SW,233,0.0,0.0,92,0.00,,SKC,0.00,VWS V14.01,2013-10-22 09:01:00,
2013-10-22 04:06:00,29.7,27.7,29.94,SW,233,0.0,0.0,92,0.00,,SKC,0.00,VWS V14.01,2013-10-22 09:06:00,
2013-10-22 04:11:00,29.7,27.7,29.94,SW,233,0.0,0.0,92,0.00,,SKC,0.00,VWS V14.01,2013-10-22 09:11:00,
2013-10-22 04:16:00,29.7,27.7,29.94,SW,233,0.0,0.0,92,0.00,,SKC,0.00,VWS V14.01,2013-10-22 09:16:00,
2013-10-22 04:21:00,29.6,27.6,29.94,SW,233,0.0,0.0,92,0.00,,SKC,0.00,VWS V14.01,2013-10-22 09:21:00,
2013-10-22 04:26:00,29.6,27.6,29.94,SW,233,0.0,0.0,92,0.00,,SKC,0.00,VWS V14.01,2013-10-22 09:26:00,
2013-10-22 04:31:00,29.6,27.6,29.94,SW,233,0.0,0.0,92,0.00,,SKC,0.00,VWS V14.01,2013-10-22 09:31:00,
2013-10-22 04:36:00,29.5,27.5,29.94,SW,233,0.0,0.0,92,0.00,,SKC,0.00,VWS V14.01,2013-10-22 09:36:00,
2013-10-22 04:41:00,29.5,27.5,29.94,SW,233,0.0,0.0,92,0.00,,SKC,0.00,VWS V14.01,2013-10-22 09:41:00,
2013-10-22 04:46:00,29.6,27.6,29.94,SW,233,0.0,1.0,92,0.00,,SKC,0.00,VWS V14.01,2013-10-22 09:46:00,
2013-10-22 04:51:00,29.7,27.7,29.94,SW,233,0.0,1.0,92,0.00,,SKC,0.00,VWS V14.01,2013-10-22 09:51:00,
2013-10-22 04:56:00,29.7,27.7,29.94,SW,233,0.0,1.0,92,0.00,,SKC,0.00,VWS V14.01,2013-10-22 09:56:00,
2013-10-22 05:01:00,29.8,27.8,29.95,SW,233,0.0,0.0,92,0.00,,SKC,0.00,VWS V14.01,2013-10-22 10:01:00,
2013-10-22 05:06:00,29.8,27.8,29.95,SW,233,0.0,0.0,92,0.00,,SKC,0.00,VWS V14.01,2013-10-22 10:06:00,
2013-10-22 05:11:00,30.0,28.0,29.95,SW,233,0.0,1.0,92,0.00,,SKC,0.00,VWS V14.01,2013-10-22 10:11:00,
2013-10-22 05:16:00,30.1,28.3,29.95,SW,233,0.0,1.0,93,0.00,,SKC,0.00,VWS V14.01,2013-10-22 10:16:00,
2013-10-22 05:21:00,30.2,28.2,29.95,SW,233,0.0,1.0,92,0.00,,SKC,0.00,VWS V14.01,2013-10-22 10:21:00,
2013-10-22 05:26:00,30.3,28.5,29.95,SW,233,0.0,1.0,93,0.00,,SKC,0.00,VWS V14.01,2013-10-22 10:26:00,
2013-10-22 05:31:00,30.3,28.3,29.95,SW,233,0.0,0.0,92,0.00,,SKC,0.00,VWS V14.01,2013-10-22 10:31:00,
2013-10-22 05:36:00,30.3,28.5,29.95,SW,233,0.0,0.0,93,0.00,,SKC,0.00,VWS V14.01,2013-10-22 10:36:00,
2013-10-22 05:41:00,30.4,28.6,29.95,SW,233,0.0,0.0,93,0.00,,SKC,0.00,VWS V14.01,2013-10-22 10:41:00,
2013-10-22 05:46:00,30.4,28.6,29.95,SW,233,0.0,0.0,93,0.00,,SKC,0.00,VWS V14.01,2013-10-22 10:46:00,
2013-10-22 05:51:00,30.5,28.7,29.95,SW,233,0.0,0.0,93,0.00,,SKC,0.00,VWS V14.01,2013-10-22 10:51:00,
2013-10-22 05:56:00,30.5,28.7,29.95,SW,233,0.0,0.0,93,0.00,,SKC,0.00,VWS V14.01,2013-10-22 10:56:00,
2013-10-22 06:01:00,30.6,28.8,29.95,SW,233,0.0,0.0,93,0.00,,SKC,0.00,VWS V14.01,2013-10-22 11:01:00,
2013-10-22 06:06:00,30.6,28.8,29.95,SW,233,0.0,0.0,93,0.00,,SKC,0.00,VWS V14.01,2013-10-22 11:06:00,
2013-10-22 06:11:00,30.6,28.8,29.95,SW,233,0.0,0.0,93,0.00,,SKC,0.00,VWS V14.01,2013-10-22 11:11:00,
2013-10-22 06:16:00,30.6,28.8,29.95,SW,233,0.0,0.0,93,0.00,,SKC,0.00,VWS V14.01,2013-10-22 11:16:00,
2013-10-22 06:21:00,30.7,28.9,29.95,SW,233,0.0,0.0,93,0.00,,SKC,0.00,VWS V14.01,2013-10-22 11:21:00,
2013-10-22 06:26:00,30.7,28.9,29.95,SW,233,0.0,0.0,93,0.00,,SKC,0.00,VWS V14.01,2013-10-22 11:26:00,
2013-10-22 06:31:00,30.7,28.9,29.95,SW,233,0.0,0.0,93,0.00,,SKC,0.00,VWS V14.01,2013-10-22 11:31:00,
2013-10-22 06:36:00,30.7,28.9,29.95,SW,233,0.0,0.0,93,0.00,,SKC,0.00,VWS V14.01,2013-10-22 11:36:00,
2013-10-22 06:41:00,30.7,28.9,29.95,SW,233,0.0,0.0,93,0.00,,SKC,0.00,VWS V14.01,2013-10-22 11:41:00,
2013-10-22 06:46:00,30.7,28.9,29.95,SW,233,0.0,0.0,93,0.00,,SKC,0.00,VWS V14.01,2013-10-22 11:46:00,
2013-10-22 06:51:00,30.7,28.9,29.95,SW,233,0.0,0.0,93,0.00,,SKC,0.00,VWS V14.01,2013-10-22 11:51:00,
2013-10-22 06:56:00,30.6,28.6,29.96,SW,233,0.0,0.0,92,0.00,,SKC,0.00,VWS V14.01,2013-10-22 11:56:00,
2013-10-22 07:01:00,30.5,28.7,29.95,SW,233,0.0,0.0,93,0.00,,SKC,0.00,VWS V14.01,2013-10-22 12:01:00,
2013-10-22 07:06:00,30.5,28.5,29.96,SW,233,0.0,0.0,92,0.00,,SKC,0.00,VWS V14.01,2013-10-22 12:06:00,
2013-10-22 07:11:00,30.4,28.4,29.96,SW,233,0.0,0.0,92,0.00,,SKC,0.00,VWS V14.01,2013-10-22 12:11:00,
2013-10-22 07:16:00,30.4,28.6,29.96,SW,233,0.0,0.0,93,0.00,,SKC,0.00,VWS V14.01,2013-10-22 12:16:00,
2013-10-22 07:21:00,30.4,28.6,29.96,SW,233,0.0,0.0,93,0.00,,SKC,0.00,VWS V14.01,2013-10-22 12:21:00,
2013-10-22 07:26:00,30.3,28.5,29.96,SW,233,0.0,0.0,93,0.00,,SKC,0.00,VWS V14.01,2013-10-22 12:26:00,
2013-10-22 07:31:00,30.4,28.6,29.97,SW,233,0.0,0.0,93,0.00,,SKC,0.00,VWS V14.01,2013-10-22 12:31:00,
2013-10-22 07:36:00,30.4,28.6,29.97,SW,233,0.0,0.0,93,0.00,,SKC,0.00,VWS V14.01,2013-10-22 12:36:00,
2013-10-22 07:41:00,30.4,28.6,29.96,SW,233,0.0,0.0,93,0.00,,SKC,0.00,VWS V14.01,2013-10-22 12:41:00,
2013-10-22 07:46:00,30.4,28.6,29.97,SW,233,0.0,0.0,93,0.00,,SKC,0.00,VWS V14.01,2013-10-22 12:46:00,
2013-10-22 07:51:00,30.5,28.7,29.97,SW,233,0.0,0.0,93,0.00,,SKC,0.00,VWS V14.01,2013-10-22 12:51:00,
2013-10-22 07:56:00,30.5,28.7,29.97,SW,233,0.0,0.0,93,0.00,,SKC,0.00,VWS V14.01,2013-10-22 12:56:00,
2013-10-22 08:01:00,30.6,29.1,29.97,SW,233,0.0,0.0,94,0.00,,SKC,0.00,VWS V14.01,2013-10-22 13:01:00,
2013-10-22 08:06:00,30.7,29.2,29.97,SW,233,0.0,0.0,94,0.00,,SKC,0.00,VWS V14.01,2013-10-22 13:06:00,
2013-10-22 08:11:00,30.8,29.3,29.98,SW,233,0.0,0.0,94,0.00,,SKC,0.00,VWS V14.01,2013-10-22 13:11:00,
2013-10-22 08:16:00,30.9,30.9,29.98,SW,233,0.0,0.0,100,0.00,,SKC,0.00,VWS V14.01,2013-10-22 13:16:00,
2013-10-22 08:21:00,31.1,29.6,29.98,SW,233,0.0,0.0,94,0.00,,SKC,0.00,VWS V14.01,2013-10-22 13:21:00,
2013-10-22 08:26:00,31.2,29.7,29.98,SW,233,0.0,0.0,94,0.00,,SKC,0.00,VWS V14.01,2013-10-22 13:26:00,
2013-10-22 08:31:00,31.3,29.8,29.98,SW,233,0.0,0.0,94,0.00,,SKC,0.00,VWS V14.01,2013-10-22 13:31:00,
2013-10-22 08:36:00,31.4,29.9,29.98,SW,233,0.0,0.0,94,0.00,,SKC,0.00,VWS V14.01,2013-10-22 13:36:00,
2013-10-22 08:41:00,31.6,30.1,29.98,SW,233,0.0,0.0,94,0.00,,SKC,0.00,VWS V14.01,2013-10-22 13:41:00,
2013-10-22 08:46:00,31.7,30.2,29.99,SW,233,0.0,0.0,94,0.00,,SKC,0.00,VWS V14.01,2013-10-22 13:46:00,
2013-10-22 08:51:00,32.0,30.2,29.99,SW,233,0.0,1.0,93,0.00,,SKC,0.00,VWS V14.01,2013-10-22 13:51:00,
2013-10-22 08:56:00,32.1,30.3,29.99,SW,233,0.0,1.0,93,0.00,,SKC,0.00,VWS V14.01,2013-10-22 13:56:00,
2013-10-22 09:01:00,32.3,30.5,29.99,SW,233,0.0,1.0,93,0.00,,SKC,0.00,VWS V14.01,2013-10-22 14:01:00,
2013-10-22 09:06:00,32.5,30.7,29.99,SW,233,0.0,1.0,93,0.00,,SKC,0.00,VWS V14.01,2013-10-22 14:06:00,
2013-10-22 09:11:00,32.7,30.6,29.99,SW,233,0.0,1.0,92,0.00,,SKC,0.00,VWS V14.01,2013-10-22 14:11:00,
2013-10-22 09:16:00,32.9,30.8,29.99,SW,233,0.0,1.0,92,0.00,,SKC,0.00,VWS V14.01,2013-10-22 14:16:00,
2013-10-22 09:21:00,33.1,31.0,29.99,SW,233,0.0,1.0,92,0.00,,SKC,0.00,VWS V14.01,2013-10-22 14:21:00,
2013-10-22 09:26:00,33.4,31.3,29.99,SW,233,0.0,1.0,92,0.00,,SKC,0.00,VWS V14.01,2013-10-22 14:26:00,
2013-10-22 09:31:00,33.5,31.2,29.99,SW,236,0.0,0.0,91,0.00,,SKC,0.00,VWS V14.01,2013-10-22 14:31:00,
2013-10-22 09:36:00,33.8,31.5,29.99,SW,236,0.0,0.0,91,0.00,,SKC,0.00,VWS V14.01,2013-10-22 14:36:00,
2013-10-22 09:41:00,34.1,31.8,29.99,SW,236,0.0,0.0,91,0.00,,SKC,0.00,VWS V14.01,2013-10-22 14:41:00,
2013-10-22 09:46:00,34.3,31.7,29.99,SW,236,0.0,1.0,90,0.00,,SKC,0.00,VWS V14.01,2013-10-22 14:46:00,
2013-10-22 09:51:00,34.5,31.9,29.99,SW,236,0.0,1.0,90,0.00,,SKC,0.00,VWS V14.01,2013-10-22 14:51:00,
2013-10-22 09:56:00,34.7,31.8,30.00,SW,236,0.0,1.0,89,0.00,,SKC,0.00,VWS V14.01,2013-10-22 14:56:00,
2013-10-22 10:01:00,34.8,31.9,30.00,SW,236,0.0,0.0,89,0.00,,SKC,0.00,VWS V14.01,2013-10-22 15:01:00,
2013-10-22 10:06:00,35.0,31.8,29.99,SW,236,0.0,0.0,88,0.00,,SKC,0.00,VWS V14.01,2013-10-22 15:06:00,
2013-10-22 10:11:00,35.2,32.0,30.00,SW,236,0.0,0.0,88,0.00,,SKC,0.00,VWS V14.01,2013-10-22 15:11:00,
2013-10-22 10:16:00,35.4,32.2,30.00,SW,236,0.0,0.0,88,0.00,,SKC,0.00,VWS V14.01,2013-10-22 15:16:00,
2013-10-22 10:21:00,35.6,32.1,30.00,SW,236,0.0,0.0,87,0.00,,SKC,0.00,VWS V14.01,2013-10-22 15:21:00,
2013-10-22 10:26:00,35.8,32.3,30.00,SW,236,1.0,1.0,87,0.00,,SKC,0.00,VWS V14.01,2013-10-22 15:26:00,
2013-10-22 10:31:00,36.0,31.9,30.00,SW,236,2.0,2.0,85,0.00,,SKC,0.00,VWS V14.01,2013-10-22 15:31:00,
2013-10-22 10:36:00,36.1,31.7,30.00,SW,236,0.0,3.0,84,0.00,,SKC,0.00,VWS V14.01,2013-10-22 15:36:00,
2013-10-22 10:41:00,36.4,32.0,30.00,SW,236,0.0,3.0,84,0.00,,SKC,0.00,VWS V14.01,2013-10-22 15:41:00,
2013-10-22 10:46:00,36.6,31.9,29.99,NW,315,0.0,5.0,83,0.00,,SKC,0.00,VWS V14.01,2013-10-22 15:46:00,
2013-10-22 10:51:00,36.7,32.0,30.00,NW,315,0.0,5.0,83,0.00,,SKC,0.00,VWS V14.01,2013-10-22 15:51:00,
2013-10-22 10:56:00,36.8,31.8,30.00,NW,315,0.0,5.0,82,0.00,,SKC,0.00,VWS V14.01,2013-10-22 15:56:00,
2013-10-22 11:01:00,36.9,31.9,29.99,NW,315,0.0,1.0,82,0.00,,SKC,0.00,VWS V14.01,2013-10-22 16:01:00,
2013-10-22 11:06:00,37.1,31.8,30.00,NW,315,0.0,2.0,81,0.00,,SKC,0.00,VWS V14.01,2013-10-22 16:06:00,
2013-10-22 11:11:00,37.2,31.6,30.00,NW,315,0.0,2.0,80,0.00,,SKC,0.00,VWS V14.01,2013-10-22 16:11:00,
2013-10-22 11:16:00,37.1,31.5,30.00,NW,315,0.0,2.0,80,0.00,,SKC,0.00,VWS V14.01,2013-10-22 16:16:00,
2013-10-22 11:21:00,37.1,31.5,30.00,NW,315,0.0,2.0,80,0.00,,SKC,0.00,VWS V14.01,2013-10-22 16:21:00,
2013-10-22 11:26:00,37.2,31.9,30.00,NW,315,0.0,2.0,81,0.00,,SKC,0.00,VWS V14.01,2013-10-22 16:26:00,
2013-10-22 11:31:00,37.3,32.0,30.00,NW,315,0.0,0.0,81,0.00,,SKC,0.00,VWS V14.01,2013-10-22 16:31:00,
2013-10-22 11:36:00,37.4,32.1,30.00,NW,315,0.0,0.0,81,0.00,,SKC,0.00,VWS V14.01,2013-10-22 16:36:00,
2013-10-22 11:41:00,37.3,31.7,30.00,NW,304,0.0,5.0,80,0.00,,SKC,0.00,VWS V14.01,2013-10-22 16:41:00,
2013-10-22 11:46:00,37.4,31.5,29.99,West,281,0.0,5.0,79,0.00,,SKC,0.00,VWS V14.01,2013-10-22 16:46:00,
2013-10-22 11:51:00,37.6,31.7,29.99,NW,312,0.0,5.0,79,0.00,,SKC,0.00,VWS V14.01,2013-10-22 16:51:00,
2013-10-22 11:56:00,37.8,31.2,29.99,West,265,0.0,5.0,77,0.00,,SKC,0.00,VWS V14.01,2013-10-22 16:56:00,
2013-10-22 12:01:00,38.1,31.5,29.99,West,265,0.0,0.0,77,0.00,,SKC,0.00,VWS V14.01,2013-10-22 17:01:00,
2013-10-22 12:06:00,38.3,31.4,29.99,WNW,286,2.0,2.0,76,0.00,,SKC,0.00,VWS V14.01,2013-10-22 17:06:00,
2013-10-22 12:11:00,38.6,31.4,29.99,WNW,286,0.0,2.0,75,0.00,,SKC,0.00,VWS V14.01,2013-10-22 17:11:00,
2013-10-22 12:16:00,38.9,31.3,29.99,WNW,299,0.0,4.0,74,0.00,,SKC,0.00,VWS V14.01,2013-10-22 17:16:00,
2013-10-22 12:21:00,38.9,30.7,29.99,NW,311,0.0,4.0,72,0.00,,SKC,0.00,VWS V14.01,2013-10-22 17:21:00,
2013-10-22 12:26:00,39.0,31.1,29.99,NW,311,0.0,4.0,73,0.00,,SKC,0.00,VWS V14.01,2013-10-22 17:26:00,
2013-10-22 12:31:00,39.2,31.0,29.99,NW,312,0.0,5.0,72,0.00,,SKC,0.00,VWS V14.01,2013-10-22 17:31:00,
2013-10-22 12:36:00,39.3,30.4,29.99,West,274,0.0,5.0,70,0.00,,SKC,0.00,VWS V14.01,2013-10-22 17:36:00,
2013-10-22 12:41:00,39.4,30.4,29.99,West,274,1.0,5.0,70,0.00,,SKC,0.00,VWS V14.01,2013-10-22 17:41:00,
2013-10-22 12:46:00,39.6,31.0,29.99,NW,325,4.0,5.0,71,0.00,,SKC,0.00,VWS V14.01,2013-10-22 17:46:00,
2013-10-22 12:51:00,39.7,30.7,29.99,WNW,297,0.0,5.0,70,0.00,,SKC,0.00,VWS V14.01,2013-10-22 17:51:00,
2013-10-22 12:56:00,39.6,30.3,29.98,WNW,290,4.0,6.0,69,0.00,,SKC,0.00,VWS V14.01,2013-10-22 17:56:00,
2013-10-22 13:01:00,39.6,30.3,29.98,WNW,299,0.0,6.0,69,0.00,,SKC,0.00,VWS V14.01,2013-10-22 18:01:00,
2013-10-22 13:06:00,39.8,30.8,29.98,NW,318,0.0,6.0,70,0.00,,SKC,0.00,VWS V14.01,2013-10-22 18:06:00,
2013-10-22 13:11:00,39.9,30.6,29.98,West,269,0.0,6.0,69,0.00,,SKC,0.00,VWS V14.01,2013-10-22 18:11:00,
2013-10-22 13:16:00,40.0,30.3,29.98,WNW,298,0.0,6.0,68,0.00,,SKC,0.00,VWS V14.01,2013-10-22 18:16:00,
2013-10-22 13:21:00,39.9,30.6,29.98,WNW,298,0.0,6.0,69,0.00,,SKC,0.00,VWS V14.01,2013-10-22 18:21:00,
2013-10-22 13:26:00,40.0,30.7,29.98,WNW,298,0.0,6.0,69,0.00,,SKC,0.00,VWS V14.01,2013-10-22 18:26:00,
2013-10-22 13:31:00,40.0,30.7,29.98,NW,313,4.0,5.0,69,0.00,,SKC,0.00,VWS V14.01,2013-10-22 18:31:00,
2013-10-22 13:36:00,40.2,31.6,29.98,NW,320,0.0,5.0,71,0.00,,SKC,0.00,VWS V14.01,2013-10-22 18:36:00,
2013-10-22 13:41:00,40.6,31.2,29.98,NW,323,0.0,7.0,69,0.00,,SKC,0.00,VWS V14.01,2013-10-22 18:41:00,
2013-10-22 13:46:00,40.8,31.1,29.98,NNW,333,0.0,7.0,68,0.00,,SKC,0.00,VWS V14.01,2013-10-22 18:46:00,
2013-10-22 13:51:00,40.9,30.8,29.98,NW,315,0.0,7.0,67,0.00,,SKC,0.00,VWS V14.01,2013-10-22 18:51:00,
2013-10-22 13:56:00,41.0,30.5,29.98,NNW,347,0.0,7.0,66,0.00,,SKC,0.00,VWS V14.01,2013-10-22 18:56:00,
2013-10-22 14:01:00,40.9,30.1,29.98,North,350,1.0,9.0,65,0.00,,SKC,0.00,VWS V14.01,2013-10-22 19:01:00,
2013-10-22 14:06:00,40.8,30.3,29.98,WSW,241,1.0,9.0,66,0.00,,SKC,0.00,VWS V14.01,2013-10-22 19:06:00,
2013-10-22 14:11:00,40.9,30.8,29.98,ENE,77,1.0,9.0,67,0.00,,SKC,0.00,VWS V14.01,2013-10-22 19:11:00,
2013-10-22 14:16:00,40.8,30.7,29.98,NW,317,1.0,9.0,67,0.00,,SKC,0.00,VWS V14.01,2013-10-22 19:16:00,
2013-10-22 14:21:00,40.6,30.1,29.98,NW,308,0.0,9.0,66,0.00,,SKC,0.00,VWS V14.01,2013-10-22 19:21:00,
2013-10-22 14:26:00,40.8,31.4,29.98,NW,306,0.0,9.0,69,0.00,,SKC,0.00,VWS V14.01,2013-10-22 19:26:00,
2013-10-22 14:31:00,41.0,31.3,29.98,NNW,346,1.0,7.0,68,0.00,,SKC,0.00,VWS V14.01,2013-10-22 19:31:00,
2013-10-22 14:36:00,40.8,30.3,29.98,WNW,290,0.0,8.0,66,0.01,,SKC,0.01,VWS V14.01,2013-10-22 19:36:00,
2013-10-22 14:41:00,40.7,30.2,29.98,NW,309,0.0,8.0,66,0.01,,SKC,0.01,VWS V14.01,2013-10-22 19:41:00,
2013-10-22 14:46:00,40.7,29.9,29.98,WNW,302,0.0,9.0,65,0.01,,SKC,0.01,VWS V14.01,2013-10-22 19:46:00,
2013-10-22 14:51:00,40.9,29.7,29.98,NW,308,1.0,9.0,64,0.01,,SKC,0.01,VWS V14.01,2013-10-22 19:51:00,
2013-10-22 14:56:00,41.0,30.1,29.98,NW,324,0.0,9.0,65,0.01,,SKC,0.01,VWS V14.01,2013-10-22 19:56:00,
2013-10-22 15:01:00,41.2,30.7,29.98,NE,41,0.0,2.0,66,0.01,,SKC,0.01,VWS V14.01,2013-10-22 20:01:00,
2013-10-22 15:06:00,41.3,30.4,29.98,East,86,0.0,7.0,65,0.01,,SKC,0.01,VWS V14.01,2013-10-22 20:06:00,
2013-10-22 15:11:00,41.3,30.4,29.98,NW,314,0.0,9.0,65,0.01,,SKC,0.01,VWS V14.01,2013-10-22 20:11:00,
2013-10-22 15:16:00,41.4,30.5,29.98,WNW,299,2.0,9.0,65,0.01,,SKC,0.01,VWS V14.01,2013-10-22 20:16:00,
2013-10-22 15:21:00,41.4,30.5,29.98,ESE,123,0.0,9.0,65,0.01,,SKC,0.01,VWS V14.01,2013-10-22 20:21:00,
2013-10-22 15:26:00,41.6,30.7,29.98,NW,313,1.0,9.0,65,0.01,,SKC,0.01,VWS V14.01,2013-10-22 20:26:00,
2013-10-22 15:31:00,41.8,29.8,29.98,WNW,302,0.0,6.0,62,0.01,,SKC,0.01,VWS V14.01,2013-10-22 20:31:00,
2013-10-22 15:36:00,41.7,30.0,29.98,NW,318,0.0,6.0,63,0.01,,SKC,0.01,VWS V14.01,2013-10-22 20:36:00,
2013-10-22 15:41:00,41.5,30.2,29.98,WNW,303,4.0,6.0,64,0.01,,SKC,0.01,VWS V14.01,2013-10-22 20:41:00,
2013-10-22 15:46:00,41.3,29.7,29.98,NW,311,0.0,6.0,63,0.01,,SKC,0.01,VWS V14.01,2013-10-22 20:46:00,
2013-10-22 15:51:00,41.1,29.9,29.98,NW,311,0.0,6.0,64,0.01,,SKC,0.01,VWS V14.01,2013-10-22 20:51:00,
2013-10-22 15:56:00,41.3,29.7,29.98,NNE,28,0.0,6.0,63,0.01,,SKC,0.01,VWS V14.01,2013-10-22 20:56:00,
2013-10-22 16:01:00,41.5,29.9,29.98,ENE,58,1.0,1.0,63,0.00,,SKC,0.01,VWS V14.01,2013-10-22 21:01:00,
2013-10-22 16:06:00,41.5,29.5,29.98,ENE,58,0.0,1.0,62,0.00,,SKC,0.01,VWS V14.01,2013-10-22 21:06:00,
2013-10-22 16:11:00,41.6,29.6,29.98,North,355,0.0,2.0,62,0.00,,SKC,0.01,VWS V14.01,2013-10-22 21:11:00,
2013-10-22 16:16:00,41.9,29.5,29.98,West,275,0.0,2.0,61,0.00,,SKC,0.01,VWS V14.01,2013-10-22 21:16:00,
2013-10-22 16:21:00,41.9,29.0,29.98,WNW,294,0.0,5.0,60,0.00,,SKC,0.01,VWS V14.01,2013-10-22 21:21:00,
2013-10-22 16:26:00,41.8,29.0,29.98,WNW,296,0.0,5.0,60,0.00,,SKC,0.01,VWS V14.01,2013-10-22 21:26:00,
2013-10-22 16:31:00,41.6,29.2,29.98,WNW,296,0.0,0.0,61,0.00,,SKC,0.01,VWS V14.01,2013-10-22 21:31:00,
2013-10-22 16:36:00,41.6,29.6,29.99,WNW,296,0.0,0.0,62,0.00,,SKC,0.01,VWS V14.01,2013-10-22 21:36:00,
2013-10-22 16:41:00,41.6,30.0,29.99,WNW,296,0.0,0.0,63,0.00,,SKC,0.01,VWS V14.01,2013-10-22 21:41:00,
2013-10-22 16:46:00,41.6,30.0,29.99,WNW,296,0.0,0.0,63,0.00,,SKC,0.01,VWS V14.01,2013-10-22 21:46:00,
2013-10-22 16:51:00,41.6,30.0,29.99,WNW,296,0.0,0.0,63,0.00,,SKC,0.01,VWS V14.01,2013-10-22 21:51:00,
2013-10-22 16:56:00,41.5,30.2,29.99,WNW,296,0.0,0.0,64,0.00,,SKC,0.01,VWS V14.01,2013-10-22 21:56:00,
2013-10-22 17:01:00,41.5,29.9,29.99,WNW,296,0.0,0.0,63,0.00,,SKC,0.01,VWS V14.01,2013-10-22 22:01:00,
2013-10-22 17:06:00,41.4,29.8,29.99,WNW,296,0.0,0.0,63,0.00,,SKC,0.01,VWS V14.01,2013-10-22 22:06:00,
2013-10-22 17:11:00,41.3,30.1,29.99,WNW,296,0.0,0.0,64,0.00,,SKC,0.01,VWS V14.01,2013-10-22 22:11:00,
2013-10-22 17:16:00,41.2,29.6,29.99,WSW,240,2.0,2.0,63,0.00,,SKC,0.01,VWS V14.01,2013-10-22 22:16:00,
2013-10-22 17:21:00,41.1,29.1,29.99,WSW,238,0.0,3.0,62,0.00,,SKC,0.01,VWS V14.01,2013-10-22 22:21:00,
2013-10-22 17:26:00,41.0,29.0,29.99,WNW,286,0.0,3.0,62,0.00,,SKC,0.01,VWS V14.01,2013-10-22 22:26:00,
2013-10-22 17:31:00,40.8,28.8,29.99,NW,318,0.0,1.0,62,0.00,,SKC,0.01,VWS V14.01,2013-10-22 22:31:00,
2013-10-22 17:36:00,40.7,28.7,29.99,NW,309,0.0,4.0,62,0.00,,SKC,0.01,VWS V14.01,2013-10-22 22:36:00,
2013-10-22 17:41:00,40.5,28.1,30.00,NW,306,1.0,5.0,61,0.00,,SKC,0.01,VWS V14.01,2013-10-22 22:41:00,
2013-10-22 17:46:00,40.4,28.4,30.00,NW,306,0.0,5.0,62,0.00,,SKC,0.01,VWS V14.01,2013-10-22 22:46:00,
2013-10-22 17:51:00,40.2,30.5,30.00,NW,309,4.0,6.0,68,0.00,,SKC,0.01,VWS V14.01,2013-10-22 22:51:00,
2013-10-22 17:56:00,39.8,30.8,30.00,WNW,286,0.0,6.0,70,0.00,,SKC,0.01,VWS V14.01,2013-10-22 22:56:00,
2013-10-22 18:01:00,39.5,31.2,30.00,NW,325,2.0,2.0,72,0.00,,SKC,0.01,VWS V14.01,2013-10-22 23:01:00,
2013-10-22 18:06:00,39.2,31.3,30.00,NNW,333,0.0,9.0,73,0.00,,SKC,0.01,VWS V14.01,2013-10-22 23:06:00,
2013-10-22 18:11:00,38.9,31.3,30.00,SW,234,0.0,9.0,74,0.00,,SKC,0.01,VWS V14.01,2013-10-22 23:11:00,
2013-10-22 18:16:00,38.7,31.1,30.00,SW,232,0.0,9.0,74,0.00,,SKC,0.01,VWS V14.01,2013-10-22 23:16:00,
2013-10-22 18:21:00,38.5,31.3,30.00,WSW,240,0.0,9.0,75,0.00,,SKC,0.01,VWS V14.01,2013-10-22 23:21:00,
2013-10-22 18:26:00,38.3,31.7,30.00,WSW,240,0.0,9.0,77,0.00,,SKC,0.01,VWS V14.01,2013-10-22 23:26:00,
2013-10-22 18:31:00,38.1,31.9,30.00,WNW,292,0.0,1.0,78,0.00,,SKC,0.01,VWS V14.01,2013-10-22 23:31:00,
2013-10-22 18:36:00,38.0,31.8,30.00,WNW,292,0.0,1.0,78,0.00,,SKC,0.01,VWS V14.01,2013-10-22 23:36:00,
2013-10-22 18:41:00,37.8,31.9,30.00,WNW,292,0.0,1.0,79,0.00,,SKC,0.01,VWS V14.01,2013-10-22 23:41:00,
2013-10-22 18:46:00,37.7,31.8,30.00,WNW,292,0.0,1.0,79,0.00,,SKC,0.01,VWS V14.01,2013-10-22 23:46:00,
2013-10-22 18:51:00,37.5,31.9,30.00,WNW,292,0.0,1.0,80,0.00,,SKC,0.01,VWS V14.01,2013-10-22 23:51:00,
2013-10-22 18:56:00,37.3,32.0,30.00,WNW,292,0.0,1.0,81,0.00,,SKC,0.01,VWS V14.01,2013-10-22 23:56:00,
2013-10-22 19:01:00,37.1,31.8,30.00,WNW,292,0.0,0.0,81,0.00,,SKC,0.01,VWS V14.01,2013-10-23 00:01:00,
2013-10-22 19:06:00,37.0,32.0,30.00,WNW,292,0.0,0.0,82,0.00,,SKC,0.01,VWS V14.01,2013-10-23 00:06:00,
2013-10-22 19:11:00,36.9,32.2,30.01,WNW,292,0.0,0.0,83,0.00,,SKC,0.01,VWS V14.01,2013-10-23 00:11:00,
2013-10-22 19:16:00,36.8,32.1,30.01,WNW,289,0.0,1.0,83,0.00,,SKC,0.01,VWS V14.01,2013-10-23 00:16:00,
2013-10-22 19:21:00,36.7,32.0,30.01,WNW,289,0.0,1.0,83,0.00,,SKC,0.01,VWS V14.01,2013-10-23 00:21:00,
2013-10-22 19:26:00,36.7,32.0,30.01,WNW,289,0.0,1.0,83,0.00,,SKC,0.01,VWS V14.01,2013-10-23 00:26:00,
2013-10-22 19:31:00,36.6,31.9,30.01,WNW,289,0.0,0.0,83,0.00,,SKC,0.01,VWS V14.01,2013-10-23 00:31:00,
2013-10-22 19:36:00,36.6,32.2,30.01,WNW,289,0.0,0.0,84,0.00,,SKC,0.01,VWS V14.01,2013-10-23 00:36:00,
2013-10-22 19:41:00,36.5,32.1,30.01,WNW,289,0.0,0.0,84,0.00,,SKC,0.01,VWS V14.01,2013-10-23 00:41:00,
2013-10-22 19:46:00,36.5,32.4,30.01,WNW,289,0.0,0.0,85,0.00,,SKC,0.01,VWS V14.01,2013-10-23 00:46:00,
2013-10-22 19:51:00,36.4,32.3,30.01,WNW,289,0.0,0.0,85,0.00,,SKC,0.01,VWS V14.01,2013-10-23 00:51:00,
2013-10-22 19:56:00,36.3,32.2,30.01,WNW,289,0.0,0.0,85,0.00,,SKC,0.01,VWS V14.01,2013-10-23 00:56:00,
2013-10-22 20:01:00,36.2,32.1,30.00,WNW,289,0.0,0.0,85,0.00,,SKC,0.01,VWS V14.01,2013-10-23 01:01:00,
2013-10-22 20:06:00,36.2,32.4,30.01,WNW,289,0.0,0.0,86,0.00,,SKC,0.01,VWS V14.01,2013-10-23 01:06:00,
2013-10-22 20:11:00,36.2,32.4,30.01,WNW,289,0.0,0.0,86,0.00,,SKC,0.01,VWS V14.01,2013-10-23 01:11:00,
2013-10-22 20:16:00,36.2,32.4,30.01,WNW,289,0.0,0.0,86,0.00,,SKC,0.01,VWS V14.01,2013-10-23 01:16:00,
2013-10-22 20:21:00,36.2,32.4,30.01,WNW,289,0.0,0.0,86,0.00,,SKC,0.01,VWS V14.01,2013-10-23 01:21:00,
2013-10-22 20:26:00,36.2,32.7,30.01,WNW,289,0.0,0.0,87,0.00,,SKC,0.01,VWS V14.01,2013-10-23 01:26:00,
2013-10-22 20:31:00,36.2,32.7,30.01,WNW,289,0.0,0.0,87,0.00,,SKC,0.01,VWS V14.01,2013-10-23 01:31:00,
2013-10-22 20:36:00,36.1,32.6,30.01,WNW,289,1.0,1.0,87,0.00,,SKC,0.01,VWS V14.01,2013-10-23 01:36:00,
2013-10-22 20:41:00,36.1,32.6,30.01,WNW,289,0.0,4.0,87,0.00,,SKC,0.01,VWS V14.01,2013-10-23 01:41:00,
2013-10-22 20:46:00,36.1,32.3,30.01,WNW,289,0.0,4.0,86,0.00,,SKC,0.01,VWS V14.01,2013-10-23 01:46:00,
2013-10-22 20:51:00,36.0,31.9,30.01,ENE,66,3.0,4.0,85,0.00,,SKC,0.01,VWS V14.01,2013-10-23 01:51:00,
2013-10-22 20:56:00,35.9,31.5,30.01,ENE,62,0.0,4.0,84,0.00,,SKC,0.01,VWS V14.01,2013-10-23 01:56:00,
2013-10-22 21:01:00,35.6,31.0,30.01,ENE,62,1.0,2.0,83,0.00,,SKC,0.01,VWS V14.01,2013-10-23 02:01:00,
2013-10-22 21:06:00,35.3,30.4,30.01,East,101,1.0,6.0,82,0.00,,SKC,0.01,VWS V14.01,2013-10-23 02:06:00,
2013-10-22 21:11:00,35.0,30.1,30.02,East,101,0.0,6.0,82,0.00,,SKC,0.01,VWS V14.01,2013-10-23 02:11:00,
2013-10-22 21:16:00,34.7,30.1,30.01,East,101,0.0,6.0,83,0.00,,SKC,0.01,VWS V14.01,2013-10-23 02:16:00,
2013-10-22 21:21:00,34.4,30.1,30.01,East,94,0.0,6.0,84,0.00,,SKC,0.01,VWS V14.01,2013-10-23 02:21:00,
2013-10-22 21:26:00,34.2,29.9,30.01,East,94,0.0,6.0,84,0.00,,SKC,0.01,VWS V14.01,2013-10-23 02:26:00,
2013-10-22 21:31:00,33.9,29.9,30.01,East,94,0.0,2.0,85,0.00,,SKC,0.01,VWS V14.01,2013-10-23 02:31:00,
2013-10-22 21:36:00,33.7,29.7,30.02,East,94,0.0,4.0,85,0.00,,SKC,0.01,VWS V14.01,2013-10-23 02:36:00,
2013-10-22 21:41:00,33.6,29.9,30.02,East,94,0.0,4.0,86,0.00,,SKC,0.01,VWS V14.01,2013-10-23 02:41:00,
2013-10-22 21:46:00,33.5,29.8,30.02,East,94,2.0,4.0,86,0.00,,SKC,0.01,VWS V14.01,2013-10-23 02:46:00,
2013-10-22 21:51:00,33.4,29.7,30.01,East,94,0.0,4.0,86,0.00,,SKC,0.01,VWS V14.01,2013-10-23 02:51:00,
2013-10-22 21:56:00,33.3,29.6,30.01,East,94,1.0,4.0,86,0.00,,SKC,0.01,VWS V14.01,2013-10-23 02:56:00,
2013-10-22 22:01:00,33.3,29.9,30.01,East,94,0.0,0.0,87,0.00,,SKC,0.01,VWS V14.01,2013-10-23 03:01:00,
2013-10-22 22:06:00,33.1,29.7,30.01,East,94,0.0,1.0,87,0.00,,SKC,0.01,VWS V14.01,2013-10-23 03:06:00,
2013-10-22 22:11:00,33.0,29.6,30.02,East,94,0.0,1.0,87,0.00,,SKC,0.01,VWS V14.01,2013-10-23 03:11:00,
2013-10-22 22:16:00,32.9,29.5,30.02,East,94,0.0,1.0,87,0.00,,SKC,0.01,VWS V14.01,2013-10-23 03:16:00,
2013-10-22 22:21:00,32.9,29.7,30.02,East,94,0.0,1.0,88,0.00,,SKC,0.01,VWS V14.01,2013-10-23 03:21:00,
2013-10-22 22:26:00,32.9,29.7,30.02,East,94,0.0,1.0,88,0.00,,SKC,0.01,VWS V14.01,2013-10-23 03:26:00,
2013-10-22 22:31:00,32.8,29.6,30.02,East,94,0.0,0.0,88,0.00,,SKC,0.01,VWS V14.01,2013-10-23 03:31:00,
2013-10-22 22:36:00,32.8,29.6,30.02,East,94,0.0,0.0,88,0.00,,SKC,0.01,VWS V14.01,2013-10-23 03:36:00,
2013-10-22 22:41:00,32.7,29.8,30.01,East,94,0.0,0.0,89,0.00,,SKC,0.01,VWS V14.01,2013-10-23 03:41:00,
2013-10-22 22:46:00,32.7,29.8,30.01,East,94,0.0,0.0,89,0.00,,SKC,0.01,VWS V14.01,2013-10-23 03:46:00,
2013-10-22 22:51:00,32.6,29.7,30.01,East,94,0.0,0.0,89,0.00,,SKC,0.01,VWS V14.01,2013-10-23 03:51:00,
2013-10-22 22:56:00,32.5,29.6,30.01,East,94,0.0,0.0,89,0.00,,SKC,0.01,VWS V14.01,2013-10-23 03:56:00,
2013-10-22 23:01:00,32.4,29.5,30.01,East,94,0.0,0.0,89,0.00,,SKC,0.01,VWS V14.01,2013-10-23 04:01:00,
2013-10-22 23:06:00,32.3,29.4,30.01,East,94,0.0,0.0,89,0.00,,SKC,0.01,VWS V14.01,2013-10-23 04:06:00,
2013-10-22 23:11:00,32.3,29.7,30.01,East,94,0.0,0.0,90,0.00,,SKC,0.01,VWS V14.01,2013-10-23 04:11:00,
2013-10-22 23:16:00,32.3,29.7,30.01,East,94,0.0,0.0,90,0.00,,SKC,0.01,VWS V14.01,2013-10-23 04:16:00,
2013-10-22 23:21:00,32.3,29.7,30.01,East,94,0.0,0.0,90,0.00,,SKC,0.01,VWS V14.01,2013-10-23 04:21:00,
2013-10-22 23:26:00,32.3,29.7,30.01,East,94,0.0,0.0,90,0.00,,SKC,0.01,VWS V14.01,2013-10-23 04:26:00,
2013-10-22 23:31:00,32.3,29.7,30.00,East,94,0.0,0.0,90,0.00,,SKC,0.01,VWS V14.01,2013-10-23 04:31:00,
2013-10-22 23:36:00,32.3,29.7,30.00,East,94,0.0,0.0,90,0.00,,SKC,0.01,VWS V14.01,2013-10-23 04:36:00,
2013-10-22 23:41:00,32.3,30.0,30.00,East,94,0.0,0.0,91,0.00,,SKC,0.01,VWS V14.01,2013-10-23 04:41:00,
2013-10-22 23:46:00,32.3,30.0,30.00,East,94,0.0,0.0,91,0.00,,SKC,0.01,VWS V14.01,2013-10-23 04:46:00,
2013-10-22 23:51:00,32.3,30.0,30.00,East,94,0.0,0.0,91,0.00,,SKC,0.01,VWS V14.01,2013-10-23 04:51:00,
2013-10-22 23:56:00,32.3,30.0,30.00,East,94,0.0,0.0,91,0.00,,SKC,0.01,VWS V14.01,2013-10-23 04:56:00,